Simultaneous Nadir Overpasses (SNOs) Predictions

Prediction of SNOs between NOAA-19 and NPP Satellite Orbit:

Table of predicted SNOs for the next 14.0 days since TLE Epoch: 3/4/2023
Index Date (NOAA-19) Time (NOAA-19) Lat,Lon (NOAA-19) SZA (NOAA-19 ) Date (NPP) Time (NPP) Lat,Lon (NPP) SZA (NPP ) Distance(km) Time Diff (sec)
1 03/14/2023 20:45:01 75.59,-146.84 78.59 03/14/2023 20:46:15 75.67,-146.62 78.63 10.87 74
2 03/14/2023 21:35:56 -75.66, 20.68 101.37 03/14/2023 21:36:59 -75.65, 20.74 101.41 1.74 63
3 03/14/2023 22:26:58 75.69,-171.98 78.64 03/14/2023 22:27:45 75.67,-171.99 78.60 2.78 47
4 03/14/2023 23:17:55 -75.68, -4.76 101.39 03/14/2023 23:18:30 -75.70, -4.79 101.38 2.67 35
5 03/15/2023 00:08:57 75.71, 162.58 78.62 03/15/2023 00:09:16 75.71, 162.48 78.63 2.80 19
6 03/15/2023 00:59:53 -75.69, -30.20 101.41 03/15/2023 00:59:59 -75.70, -30.16 101.41 1.48 6
7 03/15/2023 01:50:55 75.72, 137.13 78.60 03/15/2023 01:50:45 75.71, 137.11 78.60 1.14 10
8 03/15/2023 02:41:52 -75.71, -55.65 101.43 03/15/2023 02:41:29 -75.70, -55.53 101.44 3.21 23
9 03/15/2023 03:32:54 75.74, 111.69 78.58 03/15/2023 03:32:15 75.71, 111.73 78.57 2.77 39
10 03/15/2023 04:23:51 -75.72, -81.09 101.44 03/15/2023 04:23:00 -75.75, -81.06 101.41 2.73 51
11 03/15/2023 05:14:53 75.75, 86.25 78.57 03/15/2023 05:13:46 75.76, 86.21 78.60 1.45 67
12 03/15/2023 06:05:46 -75.92,-105.90 101.34 03/15/2023 06:04:33 -75.88,-106.89 101.27 26.95 73



Historial Predications of SNOs between NOAA-19 and NPP
